Location: Gerlach
(40.6516°N, 119.3568°W)
Time: 14:51:41
(UTC-07:00)

A-11 Canister half - Pass Details

Date: 28 February 2024
Orbit: 1525 x 1683 km, 47.3° (Epoch: 21 April)

Event Time Altitude Azimuth Distance (km) Brightness Sun altitude
Rises 23:14:12 0° 285° (WNW) 4,731 11.9 -54.8°
Reaches altitude 10° 23:17:22 10° 289° (WNW) 3,730 11.2 -55.1°
Enters shadow 23:18:43 15° 291° (WNW) 3,318 10.9 -55.2°
